TimeHST,TemperatureF,Dew PointF,Humidity,Sea Level PressureIn,VisibilityMPH,Wind Direction,Wind SpeedMPH,Gust SpeedMPH,PrecipitationIn,Events,Conditions,WindDirDegrees,DateUTC
12:56 AM,73.0,61.0,66,30.10,10.0,Calm,Calm,-,N/A,,Clear,0,2013-06-13 10:56:00
1:56 AM,73.0,61.0,66,30.08,10.0,Calm,Calm,-,N/A,,Clear,0,2013-06-13 11:56:00
2:56 AM,70.0,61.0,73,30.08,10.0,Calm,Calm,-,N/A,,Partly Cloudy,0,2013-06-13 12:56:00
3:56 AM,69.1,60.1,73,30.08,10.0,Calm,Calm,-,N/A,,Clear,0,2013-06-13 13:56:00
4:56 AM,70.0,61.0,73,30.08,10.0,East,3.5,-,N/A,,Clear,90,2013-06-13 14:56:00
5:56 AM,70.0,63.0,78,30.09,10.0,Calm,Calm,-,N/A,,Clear,0,2013-06-13 15:56:00
6:56 AM,73.9,64.9,73,30.09,10.0,NE,3.5,-,N/A,,Clear,50,2013-06-13 16:56:00
7:56 AM,77.0,66.0,69,30.11,10.0,Calm,Calm,-,N/A,,Clear,0,2013-06-13 17:56:00
8:56 AM,79.0,66.9,66,30.12,10.0,WNW,6.9,-,N/A,,Clear,290,2013-06-13 18:56:00
9:56 AM,81.0,66.0,60,30.12,10.0,West,8.1,-,N/A,,Scattered Clouds,280,2013-06-13 19:56:00
10:56 AM,81.0,66.9,62,30.11,10.0,WNW,9.2,-,N/A,,Partly Cloudy,290,2013-06-13 20:56:00
11:56 AM,84.0,64.9,53,30.11,10.0,West,9.2,-,N/A,,Clear,270,2013-06-13 21:56:00
12:56 PM,84.0,64.9,53,30.10,10.0,West,8.1,-,N/A,,Scattered Clouds,270,2013-06-13 22:56:00
1:56 PM,84.9,64.9,51,30.08,-9999.0,WNW,8.1,-,N/A,,Partly Cloudy,290,2013-06-13 23:56:00
2:56 PM,82.9,64.9,54,30.07,-9999.0,WNW,5.8,16.1,N/A,,Mostly Cloudy,300,2013-06-14 00:56:00
3:56 PM,82.9,66.9,58,30.06,-9999.0,WNW,10.4,-,N/A,,Mostly Cloudy,300,2013-06-14 01:56:00
4:56 PM,82.9,68.0,60,30.05,-9999.0,NW,11.5,-,N/A,,Overcast,320,2013-06-14 02:56:00
5:56 PM,81.0,66.0,60,30.06,-9999.0,Calm,Calm,-,N/A,,Mostly Cloudy,0,2013-06-14 03:56:00
6:56 PM,80.1,68.0,67,30.08,-9999.0,West,8.1,-,N/A,,Scattered Clouds,280,2013-06-14 04:56:00
7:56 PM,79.0,68.0,69,30.09,-9999.0,WSW,5.8,-,N/A,,Scattered Clouds,250,2013-06-14 05:56:00
8:56 PM,77.0,66.9,71,30.11,-9999.0,Calm,Calm,-,N/A,,Overcast,0,2013-06-14 06:56:00
9:56 PM,75.9,66.9,74,30.13,-9999.0,Calm,Calm,-,N/A,,Scattered Clouds,0,2013-06-14 07:56:00
10:56 PM,75.0,66.0,73,30.14,-9999.0,Calm,Calm,-,N/A,,Mostly Cloudy,0,2013-06-14 08:56:00
11:56 PM,73.0,66.0,79,30.12,-9999.0,NE,4.6,-,N/A,,Clear,50,2013-06-14 09:56:00